|  Orbital Elements
Epoch 2020 Apr. 21.0 TT = JDT 2458960.5
T 2020 Apr. 7.91011 TT                                  MPC
q   0.5279882            (2000.0)            P               Q
n   0.17494521     Peri.  345.91141     +0.17411332     -0.96855038
a   3.1661732      Node    93.83539     +0.91984127     +0.09553088
e   0.8332409      Incl.   10.26191     +0.35153463     +0.22974773
P   5.63
From 446 observations 2003 May 26-2014 July 2, mean residual 0".8.
     Nongravitational parameters A1 = -0.18, A2 = +0.0054.
 |